TimeMST,TemperatureF,Dew PointF,Humidity,Sea Level PressureIn,VisibilityMPH,Wind Direction,Wind SpeedMPH,Gust SpeedMPH,PrecipitationIn,Events,Conditions,WindDirDegrees,DateUTC
12:08 AM,19.4,15.8,86,29.82,2.0,ESE,12.7,-,0.00,Snow,Light Snow,120,2013-02-21 07:08:00
12:21 AM,19.4,15.8,86,29.83,4.0,ESE,11.5,-,0.00,Snow,Light Snow,120,2013-02-21 07:21:00
12:32 AM,19.4,15.8,86,29.83,6.0,ESE,10.4,-,0.01,Snow,Light Snow,120,2013-02-21 07:32:00
12:53 AM,19.0,16.0,88,29.94,2.0,ESE,11.5,-,0.01,Snow,Light Snow,120,2013-02-21 07:53:00
1:09 AM,19.4,15.8,86,29.82,5.0,ESE,15.0,-,0.00,Snow,Light Snow,120,2013-02-21 08:09:00
1:31 AM,19.4,15.8,86,29.83,4.0,ESE,12.7,-,0.00,Snow,Light Snow,120,2013-02-21 08:31:00
1:43 AM,19.4,15.8,86,29.83,2.0,SE,11.5,-,0.00,Snow,Light Snow,130,2013-02-21 08:43:00
1:53 AM,19.0,16.0,88,29.94,3.0,SE,8.1,-,0.00,Snow,Light Snow,130,2013-02-21 08:53:00
2:02 AM,17.6,15.8,93,29.82,2.5,ESE,10.4,-,0.01,Snow,Light Snow,120,2013-02-21 09:02:00
2:14 AM,17.6,15.8,93,29.82,3.0,ESE,12.7,-,0.01,Snow,Light Snow,120,2013-02-21 09:14:00
2:30 AM,17.6,15.8,93,29.81,1.8,SE,13.8,-,0.01,Snow,Light Snow,130,2013-02-21 09:30:00
2:37 AM,17.6,15.8,93,29.81,1.0,SE,10.4,-,0.02,Snow,Light Snow,130,2013-02-21 09:37:00
2:53 AM,18.0,15.1,88,29.93,1.5,SE,10.4,-,0.02,Snow,Light Snow,130,2013-02-21 09:53:00
3:03 AM,17.6,15.8,93,29.80,3.0,SE,8.1,-,0.01,Snow,Light Snow,130,2013-02-21 10:03:00
3:53 AM,16.0,12.9,88,29.94,9.0,East,4.6,-,0.01,,Overcast,100,2013-02-21 10:53:00
4:53 AM,16.0,14.0,92,29.97,5.0,ENE,4.6,-,0.00,Snow,Light Snow,70,2013-02-21 11:53:00
5:32 AM,15.8,14.0,93,29.84,2.5,ENE,3.5,-,0.00,Snow,Light Snow,70,2013-02-21 12:32:00
5:39 AM,15.8,14.0,93,29.84,6.0,East,4.6,-,0.00,Snow,Light Snow,80,2013-02-21 12:39:00
5:48 AM,17.6,14.0,86,29.84,9.0,ENE,3.5,-,0.00,,Overcast,70,2013-02-21 12:48:00
5:53 AM,17.1,14.0,88,29.97,10.0,ENE,3.5,-,0.00,,Overcast,70,2013-02-21 12:53:00
6:04 AM,17.6,14.0,86,29.84,10.0,Calm,Calm,-,N/A,,Overcast,0,2013-02-21 13:04:00
6:12 AM,17.6,15.8,93,29.84,10.0,East,4.6,-,N/A,,Overcast,100,2013-02-21 13:12:00
6:30 AM,17.6,15.8,93,29.85,10.0,ESE,5.8,-,N/A,,Overcast,110,2013-02-21 13:30:00
6:53 AM,18.0,15.1,88,29.99,10.0,ENE,4.6,-,N/A,,Overcast,70,2013-02-21 13:53:00
7:44 AM,17.6,14.0,86,29.87,5.0,East,8.1,-,0.00,Snow,Light Snow,100,2013-02-21 14:44:00
7:53 AM,18.0,14.0,84,30.01,3.0,East,6.9,-,0.00,Snow,Light Snow,90,2013-02-21 14:53:00
8:03 AM,17.6,14.0,86,29.88,2.5,East,9.2,-,0.00,Snow,Light Snow,100,2013-02-21 15:03:00
8:08 AM,17.6,14.0,86,29.88,1.5,ESE,6.9,-,0.00,Snow,Light Snow,110,2013-02-21 15:08:00
8:18 AM,17.6,14.0,86,29.88,1.0,East,8.1,-,0.00,Snow,Light Snow,90,2013-02-21 15:18:00
8:53 AM,18.0,14.0,84,30.03,1.0,East,6.9,-,0.01,Snow,Light Snow,100,2013-02-21 15:53:00
9:11 AM,17.6,15.8,93,29.89,0.8,ESE,6.9,-,0.01,Snow,Light Snow,110,2013-02-21 16:11:00
9:23 AM,17.6,15.8,93,29.89,1.0,East,8.1,-,0.01,Snow,Light Snow,100,2013-02-21 16:23:00
9:53 AM,18.0,14.0,84,30.04,1.8,ESE,8.1,-,0.02,Snow,Light Snow,110,2013-02-21 16:53:00
9:58 AM,19.4,14.0,80,29.89,2.0,ESE,8.1,-,0.00,Snow,Light Snow,110,2013-02-21 16:58:00
10:17 AM,19.4,14.0,80,29.89,3.0,ESE,5.8,-,0.00,Snow,Light Snow,110,2013-02-21 17:17:00
10:28 AM,19.4,12.2,74,29.88,2.5,East,3.5,-,0.00,Snow,Light Snow,90,2013-02-21 17:28:00
10:40 AM,19.4,12.2,74,29.88,4.0,Calm,Calm,-,0.00,Snow,Light Snow,0,2013-02-21 17:40:00
10:53 AM,19.9,14.0,78,30.02,6.0,Calm,Calm,-,0.00,,Haze,0,2013-02-21 17:53:00
11:31 AM,21.2,14.0,74,29.88,1.8,Calm,Calm,-,0.00,Snow,Light Snow,0,2013-02-21 18:31:00
11:40 AM,21.2,15.8,80,29.88,1.5,Calm,Calm,-,0.00,Snow,Light Snow,0,2013-02-21 18:40:00
11:53 AM,19.9,15.1,81,30.01,1.5,Calm,Calm,-,0.00,Snow,Light Snow,0,2013-02-21 18:53:00
12:05 PM,21.2,15.8,80,29.87,2.0,NNW,5.8,-,0.00,Snow,Light Snow,330,2013-02-21 19:05:00
12:35 PM,21.2,15.8,80,29.85,3.0,NW,6.9,-,0.00,Snow,Light Snow,310,2013-02-21 19:35:00
12:53 PM,24.1,17.1,75,29.97,3.0,NW,8.1,-,0.00,Snow,Light Snow,310,2013-02-21 19:53:00
1:04 PM,24.8,17.6,74,29.84,2.5,WNW,8.1,-,0.01,Snow,Light Snow,300,2013-02-21 20:04:00
1:14 PM,24.8,17.6,74,29.84,3.0,NNW,8.1,-,0.01,Snow,Light Snow,340,2013-02-21 20:14:00
1:21 PM,24.8,17.6,74,29.83,3.0,NNW,9.2,-,0.01,Snow,Light Snow,330,2013-02-21 20:21:00
1:53 PM,25.0,17.1,72,29.96,9.0,North,10.4,-,0.01,,Overcast,350,2013-02-21 20:53:00
2:51 PM,24.8,17.6,74,29.83,10.0,North,11.5,-,N/A,,Overcast,350,2013-02-21 21:51:00
2:53 PM,25.0,16.0,69,29.96,10.0,North,10.4,-,N/A,,Overcast,350,2013-02-21 21:53:00
3:53 PM,25.0,18.0,75,29.97,10.0,North,6.9,-,N/A,,Overcast,350,2013-02-21 22:53:00
4:53 PM,24.1,18.0,77,29.99,4.0,NNE,9.2,-,0.00,Snow,Light Snow,20,2013-02-21 23:53:00
5:53 PM,23.0,18.0,81,30.00,10.0,NE,9.2,-,0.00,,Overcast,40,2013-02-22 00:53:00
6:53 PM,23.0,18.0,81,30.01,10.0,NE,5.8,-,N/A,,Overcast,40,2013-02-22 01:53:00
7:50 PM,21.2,17.6,86,29.88,2.5,NNE,3.5,-,0.00,Snow,Light Snow,20,2013-02-22 02:50:00
7:53 PM,21.2,17.6,86,29.88,2.5,NNE,3.5,-,N/A,Snow,Light Snow,20,2013-02-22 02:53:00
8:06 PM,21.2,17.6,86,29.88,3.0,Calm,Calm,-,0.00,Snow,Light Snow,0,2013-02-22 03:06:00
8:25 PM,21.2,17.6,86,29.88,2.5,NW,3.5,-,0.00,Snow,Light Snow,320,2013-02-22 03:25:00
8:34 PM,19.4,17.6,93,29.88,4.0,WNW,3.5,-,0.00,Snow,Light Snow,300,2013-02-22 03:34:00
8:53 PM,19.9,18.0,92,30.02,5.0,WNW,4.6,-,0.00,,Overcast,290,2013-02-22 03:53:00
9:53 PM,19.0,17.1,92,30.02,8.0,Calm,Calm,-,N/A,,Overcast,0,2013-02-22 04:53:00
10:53 PM,19.9,16.0,85,30.01,2.0,Calm,Calm,-,0.01,Snow,Light Snow,0,2013-02-22 05:53:00
11:01 PM,21.2,17.6,86,29.88,1.8,Calm,Calm,-,0.00,Snow,Light Snow,0,2013-02-22 06:01:00
11:11 PM,21.2,17.6,86,29.87,3.0,Calm,Calm,-,0.00,Snow,Light Snow,0,2013-02-22 06:11:00
11:53 PM,19.9,18.0,92,30.01,9.0,Calm,Calm,-,0.00,,Overcast,0,2013-02-22 06:53:00